Regional Weather Roundup
Issued by NWS Upton, NY

Current Version | Previous Version | Text Only | Print | Product List | Glossary On
Versions: 1 2 3 4 5 6 7 8 9 10 11 12 13 14 15 16 17 18 19 20 21 22 23 24 25 26 27 28 29 30 31 32 33 34 35 36 37 38 39 40 41 42 43 44 45 46 47 48 49 50
000
ASUS41 KOKX 232205
RWROKX

REGIONAL WEATHER ROUNDUP
NATIONAL WEATHER SERVICE NEW YORK NY
600 PM EDT SAT JUL 23 2016

NOTE: "FAIR" INDICATES FEW OR NO CLOUDS BELOW 12,000 FEET WITH NO
SIGNIFICANT WEATHER AND/OR OBSTRUCTIONS TO VISIBILITY.

NYZ071-072-176-178-NJZ106-104-232300-
NEW YORK CITY METRO AREA

CITY           SKY/WX    TMP DP  RH WIND       PRES   REMARKS
Central Park   SUNNY     92  59  33 MISG      29.81F HX  91
LaGuardia APRT MOSUNNY   97  56  25 W13G24    29.77F HX  95
Kennedy INTL   MOSUNNY   96  56  26 W14       29.78F HX  94
Newark/Liberty MOSUNNY   96  56  26 W12       29.78F HX  94
BRNX BOT. GARD   N/A     93  57  29 W3        29.78F HX  92
Wall St Helipt CLEAR     93  57  29 W12G18    29.79S HX  92
Teterboro      MOSUNNY   94  56  27 W14       29.76F HX  92
$$

NYZ177-179-078>081-232300-
LONG ISLAND NEW YORK

CITY           SKY/WX    TMP DP  RH WIND       PRES   REMARKS
FARMINGDALE    SUNNY     95  53  24 W10       29.78F HX  92
ISLIP          MOSUNNY   95  54  25 NW12      29.77F HX  93
SHIRLEY        SUNNY     96  55  25 W9        29.78F HX  94
RIVERHEAD      NOT AVBL
WESTHAMPTON    SUNNY     90  61  37 SW9       29.79F HX  90
SOUTHAMPTON      N/A     82  68  61 W7        29.74S
BRIDGEHAMPTON    N/A     95  64  36 E1        29.77S HX  97
EAST HAMPTON   FAIR      91  59  34 W7        29.77S HX  91
MONTAUK POINT    N/A     88  66  48 VRB3      29.78F HX  90
$$

NYZ052-065-067-232300-
HUDSON VALLEY

CITY           SKY/WX    TMP DP  RH WIND       PRES   REMARKS
WHITE PLAINS   MOSUNNY   93  52  24 W13       29.79F HX  90
NEWBURGH       NOT AVBL
MONTGOMERY     SUNNY     94  55  26 NW10      29.81R HX  92
POUGHKEEPSIE   MOSUNNY   95  56  26 NW14G20   29.78R HX  93
ALBANY         CLOUDY    84  62  47 N17G26    29.83R
$$

NJZ001-105-106-008-010-013-015-019>022-104-232300-
NEW JERSEY

CITY           SKY/WX    TMP DP  RH WIND       PRES   REMARKS
NEWARK/LIBERTY MOSUNNY   96  56  26 W12       29.78F HX  94
TETERBORO      MOSUNNY   94  56  27 W14       29.76F HX  92
CALDWELL       SUNNY     95  60  31 MISG      29.79F HX  95
MORRISTOWN     MOSUNNY   93  59  31 W12       29.80F HX  92
SOMERVILLE     SUNNY     95  57  27 W8G17     29.78F HX  94
SUSSEX         SUNNY     94  52  24 NW8G17    29.82S HX  91
ANDOVER          N/A     92  56  29 VRB3      29.82F HX  90
TRENTON        SUNNY     95  57  27 NW7       29.80F HX  94
MILLVILLE      PTSUNNY   90  73  57 SW6       29.84S HX  98
ATLANTIC CITY  SUNNY     91  71  51 SW8       29.83S HX  97
WRIGHTSTOWN    NOT AVBL
TOMS RIVER     PTSUNNY   79  69  71 SW9       29.83S
BELMAR         SUNNY     95  57  27 W10       29.81F HX  94
$$

PAZ047>061-062-071-232300-
EASTERN PENNSYLVANIA

CITY           SKY/WX    TMP DP  RH WIND       PRES   REMARKS
PHILADELPHIA   CLOUDY    82  70  66 E13       29.86R THUNDER
ALLENTOWN      SUNNY     95  57  27 W9G18     29.82F HX  94
SCRANTON       MOSUNNY   94  51  23 NW20G25   29.85F HX  91
$$

CTZ002-004>006-009-010-012-RIZ004-006-007-MAZ004-011-015-232300-
SOUTHERN NEW ENGLAND
 IN CT

CITY           SKY/WX    TMP DP  RH WIND       PRES   REMARKS
BRADLEY INTL   MOSUNNY   93  55  27 NW13      29.76R HX  91
HARTFORD       PTSUNNY   95  58  28 NW10      29.76R HX  94
DANBURY        SUNNY     93  51  23 W10G17    29.81S HX  90
WTRBRY/OXFORD  MOSUNNY   90  55  31 NW9G17    29.84R
BRIDGEPORT     SUNNY     94  55  26 W10G20    29.76F HX  92
MERIDEN        MOSUNNY   94  53  25 NW13G20   29.77S HX  91
NEW HAVEN      SUNNY     92  60  34 W7        29.77S HX  91
CHESTER        FAIR      90  59  35 VRB5      29.79S
GROTON         SUNNY     89  63  41 W10       29.75F HX  90
WILLIMANTIC    NOT AVBL

 IN RI

CITY           SKY/WX    TMP DP  RH WIND       PRES   REMARKS
PROVIDENCE     MOSUNNY   93  56  28 W14G24    29.74S HX  91
BLOCK ISLAND   SUNNY     83  65  54 SW13      29.77F
WESTERLY       MOSUNNY   87  61  41 W10G17    29.76F

 IN MA

CITY           SKY/WX    TMP DP  RH WIND       PRES   REMARKS
BOSTON         PTSUNNY   79  66  65 E7        29.71R THUNDER
WORCESTER      PTSUNNY   86  53  32 W15G25    29.80R
WESTFIELD      MOSUNNY   93  55  27 NW17G24   29.78R HX  91
PROVINCETOWN   SUNNY     84  70  62 SE9       29.71F
NANTUCKET      SUNNY     74  67  78 SW10      29.76S
$$

ANZ330-335-338-340-345-350-353-355-232300-
COASTAL MARINE OBSERVATIONS


STATION/POSITION TIME  SKY/WX   TEMP    WIND        PRES    VSBY  WAVE
                                AIR SEA DIR/SP/G                  HT/PER
                 (UTC)          (F)     (DEG/KT/KT) (MB)    (MI)  (FT/S)
NY HARB ENTRANCE 2050            83 77  230/  6/  6 1009.6          2/ 6
20S FIRE ISLAND  2050            79 76  220/ 10/ 12 1009.4          3/ 8
GREAT SOUTH BAY  2100            85 81  300/  8/ 14   N/A
23 SSW MONTAUK P 2050            77 72  240/ 12/ 16 1009.2          4/ 7
15 E BARNEGAT LI 2122               77                N/A           3/ 6
HUDSON CANYON    2050            79 78              1010.3          5/ 6
KINGS POINT      2100            91 72              1008.5
EXECUTION ROCKS  2100            87     270/  8/ 12   N/A
CENTRAL LI SOUND 2100            80 74  230/ 10/ 12   N/A           1/ 3
EASTERN LI SOUND 2100            76 67  220/ 12/ 16   N/A
ROBBINS REEF     2100            91     270/ 11/ 14 1008.4
$$


>>>>>>>>>>>>>>>>>>>>>>>>>>>> KEY <<<<<<<<<<<<<<<<<<<<<<<<<<<
>                                                          <
>     SKY/WX - SKY CONDITION/PRESENT WEATHER               <
>     TMP    - TEMPERATURE IN FAHRENHEIT                   <
>     DP     - DEWPOINT IN FAHRENHEIT                      <
>     RH     - RELATIVE HUMIDITY IN PERCENT                <
>     WIND   - DIRECTION AND SPEED IN MPH                  <
>     PRES   - MEAN SEA LEVEL PRESSURE IN INCHES OF HG     <
>     WCI    - WIND CHILL INDEX                            <
>     VSB    - VISIBILITY IN MILES                         <
>     HX     - HEAT INDEX                                  <
>     TC     - TEMPERATURE IN CELSIUS                      <
>     VRB    - VARIABLE WIND DIRECTION                     <
>                                                          <
>>>>>>>>>>>>>>>>>>>>>>>>>>>> KEY <<<<<<<<<<<<<<<<<<<<<<<<<<<





USA.gov is the U.S. government's official web portal to all federal, state and local government web resources and services.